Fort Leonard Wood, MO

3:17 PM CDT on September 22, 2019 (GMT -0500)
Waynesville Regional At Forney Field

Weather History for KTBN - May, 2019

Change the Weather History Date:

Sunday, May 19, 2019

  Actual Average Record
Temperature  
Mean Temperature 64 °F -  
Max Temperature 73 °F 74 °F 91 °F (1998)
Min Temperature 56 °F 56 °F 41 °F (2016)
Growing Degree Days 14 (Base 50)    
Moisture  
Dew Point 56 °F    
Average Humidity 75    
Maximum Humidity 94    
Minimum Humidity 51    
Precipitation  
Precipitation 0.00 in - - ()
Sea Level Pressure  
Sea Level Pressure 29.77 in    
Wind  
Wind Speed 10 mph (SW)    
Max Wind Speed 17 mph    
Max Gust Speed 28 mph    
Visibility 10 miles    
Events Rain    
Averages and records for this station are not official NWS values.
T = Trace of Precipitation, MM = Missing Value Source: NWS Daily Summary

Daily Weather History Graph

Daily Weather History Graph

Search for Another Location

Airport or City:

Astronomy

May. 19, 2019 Rise Set
Actual Time 5:55 AM CDT 8:14 PM CDT
Civil Twilight 5:26 AM CDT 8:44 PM CDT
Nautical Twilight 4:49 AM CDT 9:21 PM CDT
Astronomical Twilight 4:09 AM CDT 10:01 PM CDT
Moon 9:15 PM CDT (5/19) 6:40 AM CDT (5/19)
Length of Visible Light 15h 18m
Length of Day
14h 18m
Full, 99% of the Moon is Illuminated
May 19
Full
May 26
Last Quarter
Jun 3
New
Jun 10
First Quarter
Jun 17
Full

Hourly Weather History & Observations

Time (CDT) Temp. Dew Point Humidity Pressure Visibility Wind Dir Wind Speed Gust Speed Precip Events Conditions
12:00 AM 60.8 °F 59.0 °F 94% 29.68 in 10.0 mi South 8.1 mph - N/A Rain Light Rain
12:16 AM 62.6 °F 59.0 °F 88% 29.67 in 10.0 mi SSE 9.2 mph - N/A   Mostly Cloudy
12:56 AM 61.5 °F 59.2 °F 92% 29.67 in 10.0 mi South 10.4 mph - 0.00 in   Overcast
1:56 AM 62.1 °F 59.0 °F 90% 29.67 in 10.0 mi South 9.2 mph - N/A   Overcast
2:16 AM 62.6 °F 59.0 °F 88% 29.68 in 10.0 mi South 11.5 mph - N/A   Overcast
2:56 AM 62.6 °F 59.0 °F 88% 29.67 in 10.0 mi South 9.2 mph 17.3 mph N/A   Overcast
3:31 AM 62.6 °F 59.0 °F 88% 29.68 in 10.0 mi South 11.5 mph 19.6 mph N/A   Mostly Cloudy
3:36 AM 62.6 °F 59.0 °F 88% 29.68 in 10.0 mi SSW 8.1 mph - N/A   Mostly Cloudy
3:56 AM 63.0 °F 59.9 °F 90% 29.70 in 10.0 mi SW 11.5 mph 19.6 mph N/A   Mostly Cloudy
4:21 AM 62.6 °F 59.0 °F 88% 29.66 in 10.0 mi South 6.9 mph - N/A   Scattered Clouds
4:56 AM 61.3 °F 59.0 °F 92% 29.67 in 10.0 mi SSE 9.2 mph - N/A   Partly Cloudy
5:56 AM 60.6 °F 58.8 °F 94% 29.68 in 10.0 mi SSW 3.5 mph - N/A   Clear
6:56 AM 61.2 °F 59.4 °F 94% 29.69 in 10.0 mi South 9.2 mph - N/A   Partly Cloudy
7:01 AM 60.8 °F 59.0 °F 94% 29.70 in 10.0 mi South 9.2 mph - N/A   Partly Cloudy
7:46 AM 64.4 °F 59.0 °F 83% 29.71 in 10.0 mi SSW 9.2 mph - N/A   Mostly Cloudy
7:56 AM 63.9 °F 59.5 °F 86% 29.71 in 10.0 mi SSW 9.2 mph - N/A   Mostly Cloudy
8:11 AM 66.2 °F 59.0 °F 78% 29.72 in 10.0 mi SSW 9.2 mph - N/A   Scattered Clouds
8:21 AM 66.2 °F 59.0 °F 78% 29.72 in 10.0 mi SW 9.2 mph 17.3 mph N/A   Mostly Cloudy
8:56 AM 64.9 °F 58.3 °F 79% 29.74 in 10.0 mi WSW 12.7 mph - N/A   Mostly Cloudy
9:06 AM 64.4 °F 57.2 °F 77% 29.74 in 10.0 mi SW 10.4 mph 19.6 mph N/A   Scattered Clouds
9:56 AM 65.7 °F 54.3 °F 67% 29.76 in 10.0 mi WSW 13.8 mph 21.9 mph N/A   Clear
10:56 AM 68.5 °F 52.2 °F 56% 29.77 in 10.0 mi West 13.8 mph 20.7 mph N/A   Clear
11:29 AM 69.8 °F 53.6 °F 56% 29.79 in 10.0 mi West 17.3 mph 26.5 mph N/A   Clear
11:56 AM 69.3 °F 52.9 °F 56% 29.80 in 10.0 mi West 15.0 mph 27.6 mph N/A   Clear
12:28 PM 69.8 °F 55.4 °F 60% 29.81 in 10.0 mi WNW 12.7 mph 23.0 mph N/A   Partly Cloudy
12:39 PM 69.8 °F 55.4 °F 60% 29.82 in 10.0 mi WSW 16.1 mph 23.0 mph N/A   Partly Cloudy
12:56 PM 70.2 °F 54.7 °F 58% 29.82 in 10.0 mi West 12.7 mph 24.2 mph N/A   Partly Cloudy
1:56 PM 69.6 °F 54.1 °F 58% 29.85 in 10.0 mi West 5.8 mph 17.3 mph N/A   Scattered Clouds
2:56 PM 70.9 °F 54.9 °F 57% 29.86 in 10.0 mi West 15.0 mph 19.6 mph N/A   Partly Cloudy
3:56 PM 72.5 °F 54.9 °F 54% 29.87 in 10.0 mi West 10.4 mph 20.7 mph N/A   Clear
4:56 PM 72.1 °F 54.5 °F 54% 29.87 in 10.0 mi SW 10.4 mph - N/A   Clear
5:56 PM 72.1 °F 53.1 °F 51% 29.88 in 10.0 mi WSW 10.4 mph - N/A   Clear
6:56 PM 70.0 °F 52.5 °F 54% 29.90 in 10.0 mi West 9.2 mph - N/A   Clear
7:56 PM 67.1 °F 52.7 °F 60% 29.92 in 10.0 mi West 5.8 mph - N/A   Clear
8:56 PM 62.8 °F 51.6 °F 67% 29.94 in 10.0 mi West 4.6 mph - N/A   Clear
9:56 PM 57.6 °F 53.1 °F 85% 29.96 in 10.0 mi WSW 3.5 mph - N/A   Clear
10:56 PM 58.3 °F 50.7 °F 76% 29.96 in 10.0 mi West 3.5 mph - N/A   Clear
11:56 PM 56.5 °F 50.4 °F 80% 29.99 in 10.0 mi West 4.6 mph - N/A   Clear